Weather History for Augusta Bush, GA

Change the Weather History Date:

Tuesday, July 31, 2012

  Actual Average Record
Temperature  
Mean Temperature 76 °F 82 °F  
Max Temperature 83 °F 93 °F 101 °F (1986)
Min Temperature 69 °F 70 °F 59 °F (1973)
Degree Days  
Heating Degree Days 0 0  
Month to date heating degree days 0 0  
Since 1 June heating degree days 0 0  
Since 1 July heating degree days 0 0  
Cooling Degree Days 11 17  
Month to date cooling degree days 587 515  
Year to date cooling degree days 1370 1206  
Since 1 June cooling degree days 886 923  
Growing Degree Days 26 (Base 50)    
Moisture  
Dew Point 71 °F    
Average Humidity 85    
Maximum Humidity 100    
Minimum Humidity 69    
Precipitation  
Precipitation 0.08 in 0.15 in 2.00 in (2002)
Month to date precipitation 1.54 4.33  
Year to date precipitation 14.83 26.55  
Sea Level Pressure  
Sea Level Pressure 29.94 in    
Wind  
Wind Speed 3 mph (SSE)    
Max Wind Speed 9 mph    
Max Gust Speed 13 mph    
Visibility 4 miles    
Events Fog , Rain    
T = Trace of Precipitation, MM = Missing Value Source: NWS Daily Summary

Daily Weather History Graph

Daily Weather History Graph

Search for Another Location

Airport:

Trip Planner

Search our weather history database for the weather conditions in past years. The results will help you decide how hot, cold, wet, or windy it might be!

Date:

Astronomy

Jul. 31, 2012 Rise Set
Actual Time 6:40 AM EDT 8:27 PM EDT
Civil Twilight 6:13 AM EDT 8:54 PM EDT
Nautical Twilight 5:40 AM EDT 9:27 PM EDT
Astronomical Twilight 5:05 AM EDT 10:02 PM EDT
Moon 7:16 PM EDT (7/31) 5:01 AM EDT (7/31)
Length of Visible Light 14h 41m
Length of Day
13h 47m
Waxing Gibbous, 97% of the Moon is Illuminated
Jul 31
Waxing Gibbous
Aug 1
Full
Aug 9
Last Quarter
Aug 17
New
Aug 24
First Quarter

Hourly Weather History & Observations

Time (EDT) Temp. Heat Index Dew Point Humidity Pressure Visibility Wind Dir Wind Speed Gust Speed Precip Events Conditions
12:53 AM 72.0 °F - 71.1 °F 97% 29.97 in 6.0 mi Calm Calm - N/A   Clear
1:35 AM 71.6 °F - 69.8 °F 94% 29.98 in 1.8 mi Calm Calm - N/A   Clear
1:46 AM 69.8 °F - 69.8 °F 100% 29.98 in 0.5 mi Calm Calm - N/A Fog Fog
1:53 AM 71.1 °F - 70.0 °F 96% 29.97 in 1.0 mi Calm Calm - N/A   Clear
1:58 AM 71.6 °F - 69.8 °F 94% 29.97 in 3.0 mi Calm Calm - N/A   Clear
2:47 AM 71.6 °F - 69.8 °F 94% 29.95 in 1.8 mi Calm Calm - N/A   Clear
2:50 AM 69.8 °F - 69.8 °F 100% 29.95 in 0.8 mi Calm Calm - N/A   Mist
2:53 AM 70.0 °F - 69.1 °F 97% 29.94 in 0.5 mi Calm Calm - N/A Fog Fog
3:10 AM 69.8 °F - 69.8 °F 100% 29.94 in 0.2 mi Calm Calm - N/A Fog Fog
3:16 AM 69.8 °F - 69.8 °F 100% 29.93 in 1.0 mi Calm Calm - N/A   Mist
3:19 AM 69.8 °F - 69.8 °F 100% 29.93 in 3.0 mi Calm Calm - N/A   Mostly Cloudy
3:28 AM 69.8 °F - 69.8 °F 100% 29.93 in 6.0 mi Calm Calm - N/A   Scattered Clouds
3:36 AM 69.8 °F - 69.8 °F 100% 29.92 in 1.5 mi Calm Calm - N/A   Scattered Clouds
3:38 AM 69.8 °F - 69.8 °F 100% 29.92 in 0.8 mi Calm Calm - N/A   Mist
3:48 AM 69.8 °F - 69.8 °F 100% 29.92 in 0.2 mi Calm Calm - N/A Fog Fog
3:53 AM 69.1 °F - 69.1 °F 100% 29.92 in 0.2 mi Calm Calm - N/A Fog Fog
4:22 AM 71.6 °F - 69.8 °F 94% 29.92 in 0.5 mi ESE 4.6 mph - N/A Fog Fog
4:41 AM 71.6 °F - 69.8 °F 94% 29.92 in 1.0 mi SE 4.6 mph - N/A   Mist
4:53 AM 71.1 °F - 70.0 °F 96% 29.92 in 2.0 mi SE 4.6 mph - N/A   Overcast
5:11 AM 71.6 °F - 69.8 °F 94% 29.94 in 4.0 mi SSE 5.8 mph - N/A   Overcast
5:53 AM 70.0 °F - 70.0 °F 100% 29.94 in 4.0 mi ESE 4.6 mph - N/A   Overcast
6:32 AM 69.8 °F - 69.8 °F 100% 29.96 in 2.0 mi Calm Calm - N/A   Overcast
6:43 AM 69.8 °F - 69.8 °F 100% 29.96 in 0.5 mi Calm Calm - N/A Fog Fog
6:53 AM 71.1 °F - 70.0 °F 96% 29.96 in 0.5 mi Calm Calm - N/A Fog Fog
7:53 AM 70.0 °F - 70.0 °F 100% 29.95 in 0.5 mi SE 4.6 mph - N/A Fog Fog
8:21 AM 71.6 °F - 69.8 °F 94% 29.96 in 2.0 mi East 3.5 mph - N/A   Overcast
8:31 AM 71.6 °F - 69.8 °F 94% 29.96 in 1.0 mi Calm Calm - N/A   Overcast
8:53 AM 71.1 °F - 70.0 °F 96% 29.96 in 0.5 mi Calm Calm - N/A Fog Fog
9:05 AM 71.6 °F - 71.6 °F 100% 29.96 in 0.8 mi ESE 3.5 mph - N/A   Overcast
9:35 AM 71.6 °F - 71.6 °F 100% 29.96 in 0.5 mi ESE 3.5 mph - N/A Fog Fog
9:53 AM 72.0 °F - 71.1 °F 97% 29.95 in 0.8 mi ESE 3.5 mph - N/A   Overcast
10:02 AM 71.6 °F - 71.6 °F 100% 29.96 in 1.5 mi East 3.5 mph - N/A   Overcast
10:41 AM 73.4 °F - 71.6 °F 94% 29.96 in 6.0 mi Calm Calm - N/A   Overcast
10:53 AM 73.0 °F - 72.0 °F 96% 29.97 in 7.0 mi West 5.8 mph - N/A   Overcast
11:05 AM 75.2 °F - 73.4 °F 94% 29.97 in 6.0 mi West 8.1 mph - N/A   Overcast
11:15 AM 75.2 °F - 71.6 °F 89% 29.97 in 2.0 mi West 5.8 mph - N/A   Mostly Cloudy
11:36 AM 77.0 °F - 71.6 °F 83% 29.97 in 2.0 mi Calm Calm - N/A   Haze
11:53 AM 77.0 °F - 72.0 °F 84% 29.96 in 2.0 mi Calm Calm - N/A   Haze
11:56 AM 78.8 °F - 71.6 °F 78% 29.96 in 3.0 mi Calm Calm - N/A   Haze
12:53 PM 78.1 °F - 73.0 °F 84% 29.97 in 5.0 mi SSW 5.8 mph - N/A   Haze
1:19 PM 78.8 °F - 73.4 °F 83% 29.98 in 7.0 mi WSW 6.9 mph - N/A   Mostly Cloudy
1:41 PM 77.0 °F - 73.4 °F 89% 29.97 in 5.0 mi WSW 3.5 mph - 0.00 in Rain Light Rain
1:53 PM 77.0 °F - 73.9 °F 90% 29.96 in 5.0 mi WSW 4.6 mph - 0.02 in Rain Rain
2:53 PM 78.1 °F - 75.0 °F 90% 29.94 in 6.0 mi South 3.5 mph - 0.03 in Rain Light Rain
3:38 PM 78.8 °F - 73.4 °F 83% 29.93 in 10.0 mi South 3.5 mph - 0.00 in Rain Light Rain
3:53 PM 80.1 °F 84.5 °F 73.9 °F 81% 29.93 in 10.0 mi Calm Calm - 0.00 in   Overcast
4:18 PM 80.6 °F 85.4 °F 73.4 °F 79% 29.92 in 9.0 mi East 4.6 mph - N/A   Mostly Cloudy
4:53 PM 82.0 °F 86.7 °F 72.0 °F 71% 29.91 in 10.0 mi SE 5.8 mph - N/A   Mostly Cloudy
5:51 PM 82.4 °F 87.2 °F 71.6 °F 70% 29.91 in 10.0 mi South 5.8 mph - N/A   Scattered Clouds
5:53 PM 82.4 °F 88.2 °F 73.4 °F 74% 29.91 in 10.0 mi South 6.9 mph - N/A   Scattered Clouds
6:53 PM 82.0 °F 87.4 °F 73.0 °F 74% 29.89 in 10.0 mi ESE 5.8 mph - N/A   Mostly Cloudy
7:01 PM 80.6 °F 84.6 °F 71.6 °F 74% 29.90 in 10.0 mi SE 4.6 mph - N/A   Scattered Clouds
7:09 PM 80.6 °F 84.6 °F 71.6 °F 74% 29.90 in 10.0 mi SSE 4.6 mph - N/A   Mostly Cloudy
7:38 PM 80.6 °F 85.4 °F 73.4 °F 79% 29.91 in 10.0 mi SSE 5.8 mph - N/A   Scattered Clouds
7:53 PM 79.0 °F - 73.0 °F 82% 29.90 in 10.0 mi SE 5.8 mph - N/A   Clear
8:53 PM 77.0 °F - 73.9 °F 90% 29.91 in 8.0 mi SE 4.6 mph - 0.00 in   Scattered Clouds
9:53 PM 77.0 °F - 73.4 °F 89% 29.92 in 8.0 mi Calm Calm - N/A Rain Light Rain
10:53 PM 75.9 °F - 75.0 °F 97% 29.94 in 6.0 mi Calm Calm - 0.00 in   Partly Cloudy
11:53 PM 77.0 °F - 75.0 °F 94% 29.94 in 3.0 mi Calm Calm - 0.02 in Rain Rain